Weather History for New Orleans Lakefront, LA

Change the Weather History Date:

Saturday, August 10, 2013

  Actual Average Record
Temperature  
Mean Temperature 87 °F 83 °F  
Max Temperature 94 °F 92 °F 97 °F (2000)
Min Temperature 79 °F 75 °F 62 °F (1976)
Degree Days  
Heating Degree Days 0 0  
Month to date heating degree days 0 0  
Since 1 June heating degree days 0 0  
Since 1 July heating degree days 0 0  
Cooling Degree Days 22 18  
Month to date cooling degree days 215 180  
Year to date cooling degree days 1795 1860  
Since 1 June cooling degree days 1302 1241  
Growing Degree Days 37 (Base 50)    
Moisture  
Dew Point 75 °F    
Average Humidity 67    
Maximum Humidity 85    
Minimum Humidity 49    
Precipitation  
Precipitation 0.02 in 0.18 in 1.97 in (1981)
Month to date precipitation 0.50 1.95  
Year to date precipitation 43.59 40.18  
Snow  
Snow 0.00 in - - ()
Month to date snowfall 0.0  
Since 1 June snowfall 0.0  
Since 1 July snowfall 0.0  
Snow Depth 0.00 in    
Sea Level Pressure  
Sea Level Pressure 30.02 in    
Wind  
Wind Speed 6 mph (SE)    
Max Wind Speed 20 mph    
Max Gust Speed 24 mph    
Visibility 10 miles    
Events      
T = Trace of Precipitation, MM = Missing Value Source: NWS Daily Summary

Daily Weather History Graph

Daily Weather History Graph

Search for Another Location

Airport:

Trip Planner

Search our weather history database for the weather conditions in past years. The results will help you decide how hot, cold, wet, or windy it might be!

Date:

Astronomy

Aug. 10, 2013 Rise Set
Actual Time 6:24 AM CDT 7:45 PM CDT
Civil Twilight 5:59 AM CDT 8:11 PM CDT
Nautical Twilight 5:28 AM CDT 8:41 PM CDT
Astronomical Twilight 4:57 AM CDT 9:12 PM CDT
Moon 9:49 AM CDT (8/10) 9:50 PM CDT (8/10)
Length of Visible Light 14h 11m
Length of Day
13h 21m
Waxing Crescent, 14% of the Moon is Illuminated
Aug 10
Waxing Crescent
Aug 14
First Quarter
Aug 20
Full
Aug 28
Last Quarter
Sep 5
New

Hourly Weather History & Observations

Time (CDT) Temp. Heat Index Dew Point Humidity Pressure Visibility Wind Dir Wind Speed Gust Speed Precip Events Conditions
12:53 AM 82.0 °F 89.4 °F 75.9 °F 82% 30.00 in 10.0 mi SE 5.8 mph - N/A   Clear
1:53 AM 82.0 °F 90.2 °F 77.0 °F 85% 29.99 in 10.0 mi SE 5.8 mph - N/A   Clear
2:53 AM 81.0 °F 87.9 °F 77.0 °F 88% 29.99 in 10.0 mi SE 5.8 mph - N/A   Clear
3:53 AM 81.0 °F 87.9 °F 77.0 °F 88% 29.99 in 9.0 mi SE 5.8 mph - N/A   Clear
4:53 AM 81.0 °F 87.9 °F 77.0 °F 88% 30.00 in 9.0 mi SE 5.8 mph - N/A   Clear
5:53 AM 82.0 °F 90.2 °F 77.0 °F 85% 30.00 in 10.0 mi ESE 4.6 mph - N/A   Clear
6:53 AM 82.9 °F 90.8 °F 75.9 °F 79% 30.01 in 10.0 mi ESE 6.9 mph - N/A   Clear
7:53 AM 84.9 °F 95.3 °F 77.0 °F 77% 30.02 in 10.0 mi SE 5.8 mph - N/A   Partly Cloudy
8:53 AM 87.1 °F 98.8 °F 77.0 °F 72% 30.03 in 10.0 mi ESE 8.1 mph - N/A   Partly Cloudy
9:53 AM 87.1 °F 95.4 °F 73.9 °F 65% 30.04 in 10.0 mi SSE 8.1 mph - N/A   Scattered Clouds
10:53 AM 91.0 °F 99.3 °F 73.0 °F 55% 30.06 in 10.0 mi SE 9.2 mph - N/A   Scattered Clouds
11:53 AM 91.0 °F 100.4 °F 73.9 °F 57% 30.06 in 10.0 mi East 6.9 mph - N/A   Scattered Clouds
12:53 PM 91.0 °F 99.3 °F 73.0 °F 55% 30.05 in 10.0 mi East 8.1 mph - N/A   Mostly Cloudy
1:53 PM 89.1 °F 97.0 °F 73.0 °F 59% 30.03 in 10.0 mi SSE 12.7 mph - N/A   Mostly Cloudy
2:53 PM 91.9 °F 99.5 °F 72.0 °F 52% 30.01 in 10.0 mi ESE 10.4 mph - N/A   Mostly Cloudy
3:53 PM 93.0 °F 100.7 °F 72.0 °F 50% 30.01 in 10.0 mi ESE 8.1 mph 17.3 mph N/A   Mostly Cloudy
4:53 PM 90.0 °F 97.9 °F 73.0 °F 57% 30.00 in 10.0 mi SSE 15.0 mph - N/A   Mostly Cloudy
5:53 PM 88.0 °F 94.7 °F 72.0 °F 59% 30.01 in 10.0 mi SE 10.4 mph - N/A   Mostly Cloudy
6:53 PM 87.1 °F 94.5 °F 73.0 °F 63% 30.02 in 10.0 mi SE 11.5 mph - N/A   Clear
7:53 PM 86.0 °F 93.0 °F 73.0 °F 65% 30.03 in 10.0 mi SE 10.4 mph - N/A   Clear
8:53 PM 84.0 °F 92.6 °F 75.9 °F 76% 30.04 in 10.0 mi SE 8.1 mph - N/A   Clear
9:53 PM 84.0 °F 91.9 °F 75.0 °F 74% 30.06 in 10.0 mi SSE 5.8 mph - N/A   Clear
10:53 PM 82.9 °F 90.2 °F 75.0 °F 77% 30.05 in 9.0 mi SE 8.1 mph - N/A   Clear
11:53 PM 82.9 °F 90.8 °F 75.9 °F 79% 30.05 in 9.0 mi SE 8.1 mph - N/A   Clear